KW1M Weather Reports


Display with metric or nautical units.
time (UTC)temp
F
wind
direction
speed
MPH
gust
MPH
rain 1hr
in
rain 24hr
in
rain mn
in
humidity
%
barometer
mb
20260902181539 68 321 2.0 6.0 0.00 0.01 0.01 78 1022.1
20260902180040 68 288 0.0 3.0 0.00 0.01 0.01 76 1022.4
20260902174537 68 152 0.0 4.0 0.00 0.01 0.01 78 1022.6
20260902173040 67 82 0.0 5.0 0.00 0.01 0.01 78 1022.4
20260902171549 68 155 1.0 4.0 0.00 0.01 0.01 77 1022.5
20260902170034 68 34 0.0 5.0 0.00 0.01 0.01 77 1022.8
20260902164532 68 13 0.0 7.0 0.00 0.02 0.01 80 1022.7
20260902163031 67 358 2.0 7.0 0.00 0.02 0.01 78 1022.9
20260902161536 67 318 0.0 5.0 0.00 0.02 0.01 80 1023.0
20260902160027 67 221 0.0 3.0 0.00 0.02 0.01 82 1023.2
20260902154532 66 132 0.0 6.0 0.00 0.02 0.01 82 1023.6
20260902153024 66 291 0.0 2.0 0.00 0.02 0.01 83 1023.6
20260902151524 65 10 0.0 4.0 0.00 0.02 0.01 84 1023.5
20260902150019 65 141 0.0 5.0 0.00 0.02 0.01 85 1023.6
20260902144521 64 91 0.0 2.0 0.00 0.02 0.01 87 1023.8
20260902143014 64 84 0.0 2.0 0.00 0.02 0.01 87 1023.5
20260902141513 64 228 0.0 3.0 0.00 0.02 0.01 88 1023.2
20260902140011 64 298 0.0 5.0 0.00 0.02 0.01 89 1023.0
20260902134510 64 297 1.0 8.0 0.00 0.06 0.01 92 1022.8
20260902133006 62 121 1.0 6.0 0.00 0.06 0.01 94 1022.7
20260902131503 62 120 0.0 3.0 0.00 0.06 0.01 94 1022.8
20260902130002 61 154 0.0 3.0 0.00 0.06 0.01 95 1023.1
20260902124600 61 118 0.0 2.0 0.00 0.14 0.01 95 1023.0
20260902123101 60 148 0.0 0.0 0.00 0.14 0.01 96 1022.8
20260902121559 60 148 0.0 0.0 0.00 0.14 0.01 96 1022.9
20260902120059 59 148 0.0 1.0 0.00 0.14 0.01 96 1023.1
20260902114556 59 97 0.0 0.0 0.00 0.28 0.01 97 1023.1
20260902113059 59 53 0.0 0.0 0.00 0.28 0.01 97 1023.1
20260902111554 59 86 0.0 0.0 0.00 0.28 0.01 97 1022.8
20260902110053 59 86 0.0 1.0 0.00 0.28 0.01 97 1022.7
20260902104551 59 145 0.0 0.0 0.00 0.28 0.01 97 1022.5
20260902103049 59 158 0.0 0.0 0.00 0.28 0.01 97 1022.3
20260902101547 59 158 0.0 0.0 0.00 0.28 0.01 97 1022.2
20260902100047 59 158 0.0 1.0 0.00 0.28 0.01 97 1022.1
20260902094549 59 12 0.0 0.0 0.00 0.28 0.01 97 1021.9
20260902093046 59 15 0.0 0.0 0.00 0.28 0.01 97 1022.0
20260902091548 59 15 0.0 0.0 0.00 0.28 0.01 97 1022.1
20260902090043 59 15 0.0 0.0 0.00 0.28 0.01 97 1022.0
20260902084542 59 15 0.0 0.0 0.00 0.28 0.01 97 1021.9
20260902083042 60 15 0.0 0.0 0.00 0.28 0.01 96 1021.8
20260902081544 60 15 0.0 0.0 0.01 0.28 0.01 96 1022.0
20260902080040 60 15 0.0 0.0 0.01 0.28 0.01 96 1022.1
20260902074552 60 15 0.0 0.0 0.01 0.28 0.01 96 1022.1
20260902073039 60 15 0.0 0.0 0.01 0.28 0.01 96 1022.2
20260902071538 60 39 0.0 0.0 0.00 0.28 0.00 96 1022.2
20260902070038 60 40 0.0 0.0 0.00 0.28 0.00 96 1021.9
20260902064536 60 77 0.0 0.0 0.00 0.28 0.00 96 1021.9
20260902063054 60 76 0.0 0.0 0.00 0.28 0.00 96 1021.8
20260902061531 60 77 0.0 0.0 0.00 0.28 0.00 95 1021.8
20260902060029 60 77 0.0 0.0 0.00 0.28 0.00 95 1021.7
20260902054533 60 77 0.0 0.0 0.00 0.00 0.00 95 1021.6
20260902053029 60 79 0.0 0.0 0.00 0.28 0.00 95 1021.5
20260902051537 60 80 0.0 0.0 0.00 0.28 0.00 94 1021.5
20260902050029 60 91 0.0 0.0 0.00 0.28 0.00 94 1021.3
20260902044521 60 92 0.0 0.0 0.00 0.28 0.00 94 1021.0
20260902043017 60 92 0.0 0.0 0.00 0.28 0.00 93 1020.8
20260902041514 60 95 0.0 1.0 0.00 0.28 0.00 94 1020.4
20260902040015 60 116 0.0 0.0 0.00 0.28 0.00 94 1020.3
20260902034512 60 115 0.0 0.0 0.00 0.28 0.28 94 1020.3
20260902033012 60 115 0.0 0.0 0.00 0.28 0.28 94 1020.3
20260902031511 60 115 0.0 0.0 0.00 0.28 0.28 94 1020.3
20260902030010 60 115 0.0 0.0 0.00 0.28 0.28 94 1020.1
20260902024510 60 115 0.0 0.0 0.00 0.28 0.28 94 1020.1
20260902023010 60 116 0.0 0.0 0.00 0.28 0.28 94 1020.1
20260902021509 60 115 0.0 0.0 0.00 0.28 0.28 93 1020.3
20260902020007 60 115 0.0 0.0 0.00 0.28 0.28 93 1020.1
20260902014513 60 115 0.0 0.0 0.00 0.28 0.28 93 1020.2
20260902013007 60 115 0.0 2.0 0.00 0.28 0.28 92 1020.2
20260902011512 60 145 0.0 0.0 0.00 0.28 0.28 92 1020.2
20260902010005 60 121 0.0 2.0 0.00 0.28 0.28 92 1020.0
20260902004504 60 136 0.0 2.0 0.00 0.28 0.28 92 1019.9
20260902003005 61 113 0.0 2.0 0.00 0.28 0.28 93 1019.8
20260902001601 61 117 0.0 1.0 0.00 0.28 0.28 94 1019.4
20260902000104 62 127 1.0 3.0 0.00 0.28 0.28 94 1019.5
20260901234557 62 134 0.0 3.0 0.00 0.28 0.28 94 1019.3
20260901233057 63 139 0.0 2.0 0.00 0.28 0.28 94 1019.2
20260901231602 63 293 0.0 2.0 0.00 0.28 0.28 94 1019.4
20260901230056 63 117 0.0 1.0 0.00 0.28 0.28 94 1019.4
20260901224554 64 143 0.0 3.0 0.00 0.28 0.28 93 1019.3
20260901223052 64 143 0.0 2.0 0.00 0.28 0.28 92 1019.1
20260901221554 64 117 0.0 2.0 0.00 0.28 0.28 91 1018.9
20260901220051 65 125 0.0 5.0 0.00 0.28 0.28 91 1018.8
20260901214551 65 121 0.0 3.0 0.00 0.28 0.28 91 1018.8
20260901213050 65 134 0.0 3.0 0.00 0.28 0.28 90 1018.9
20260901211550 66 149 0.0 3.0 0.00 0.28 0.28 90 1018.6
20260901210105 66 149 0.0 2.0 0.00 0.28 0.28 90 1018.6
20260901204548 66 212 0.0 1.0 0.00 0.28 0.28 90 1018.6
20260901203049 66 172 0.0 1.0 0.00 0.28 0.28 88 1018.4
20260901201547 66 153 0.0 1.0 0.00 0.28 0.28 88 1018.1
20260901200047 66 222 0.0 1.0 0.00 0.28 0.28 89 1018.3
20260901194546 66 198 0.0 0.0 0.00 0.28 0.28 89 1018.4
20260901193045 66 105 0.0 0.0 0.00 0.28 0.28 88 1018.3
20260901191544 66 12 0.0 0.0 0.00 0.28 0.28 89 1018.4
20260901190100 66 160 0.0 1.0 0.00 0.28 0.28 88 1018.6
20260901184542 66 195 0.0 0.0 0.00 0.28 0.28 88 1018.5
20260901183037 66 101 0.0 0.0 0.00 0.28 0.28 89 1018.5